User: anonymous   Login
Location: Hartman Creek State Park
(44.3257°N, 89.2134°W)
Time: 23:13:38
(UTC-06:00)
Language:

BREEZE-M DEB (TANK) - Orbit

View from above orbital plane
View from above orbital plane
View from above satellite
View from above satellite

Ground track
Ground track

The orbit data is extracted from the following two-line orbital elements,

1 29649U 06056B   14328.14802942  .00003157  00000-0  50548-3 0   582
2 29649 049.4668 195.1250 5411522 299.7278 242.3624 04.95437970141159
Epoch (UTC): 24 November 2014 03:33:09
Eccentricity: 0.5411522
inclination: 49.4668°
perigee height: 291 km
apogee height: 16022 km
right ascension of ascending node: 195.1250°
argument of perigee: 299.7278°
revolutions per day: 4.95437970
mean anomaly at epoch: 242.3624°
orbit number at epoch: 14115

The dashed part of the orbit path shows where the satellite is in the earth's shadow,  

DLR